Weather Roundup
Issued by NWS

Home | Current Version | Previous Version | Graphics & Text | Print | Product List | Glossary Off
Versions: 1 2 3 4 5 6 7 8 9 10 11 12 13 14 15 16 17 18 19 20 21 22 23 24 25 26 27 28 29 30 31 32 33 34 35 36 37 38 39 40 41 42 43 44 45 46 47 48 49 50

612
NZUS93 KARX 260759
HRRWXR

CURRENT HOURLY OBSERVATIONS ACROSS
MUCH OF THE UPPER MISSISSIPPI VALLEY
NATIONAL WEATHER SERVICE LA CROSSE WI
300 AM CDT THU APR 26 2018


...SOUTHEAST MINNESOTA...


CITY           SKY/WX    TMP DP  RH WIND       PRES   REMARKS
ROCHESTER      FAIR      38  33  82 S6        29.92F WCI  33
ROCHESTER/MAYO FAIR      43  32  64 CALM      29.93S
WINONA         FAIR      37  34  87 CALM      29.91F
AUSTIN         FAIR      37  36  93 CALM      29.92F
ALBERT LEA     FAIR      39  36  87 CALM      29.93F
DODGE CENTER   FAIR      37  32  81 CALM      29.92F
PRESTON        FAIR      39  31  71 SW3       29.93F
OWATONNA       FAIR      43  34  70 S7        29.91F
FARIBAULT      NOT AVBL
$$

...ELSEWHERE IN MINNESOTA...


CITY           SKY/WX    TMP DP  RH WIND       PRES   REMARKS
MINNEAPOLIS    CLOUDY    47  34  60 SW7       29.90F
INTNL FALLS    FAIR      43  29  57 SW6       29.74F
DULUTH         FAIR      42  25  50 SW9       29.82F
RED WING       FAIR      34  27  75 CALM      29.91F
REDWOOD FALLS  CLOUDY    40  33  76 S8        29.88F WCI  34
MANKATO        FAIR      43  34  70 S6        29.92F
WORTHINGTON    CLOUDY    41  30  65 S7        29.92F
FAIRMONT       PTCLDY    40  35  83 SW5       29.92F
$$

...SOUTHWEST WISCONSIN...


CITY           SKY/WX    TMP DP  RH WIND       PRES   REMARKS
LA CROSSE      FAIR      42  34  73 SE6       29.93F
PRAIRIE DU CHI FAIR      37  28  67 CALM      29.96S
BOSCOBEL       FAIR      33  29  85 CALM      29.95F
LONE ROCK      NOT AVBL
PLATTEVILLE    FAIR      40  32  74 SE7       29.95F WCI  35
FORT MC COY    FAIR      29  26  90 CALM      29.95S
MAUSTON-NEW LI FAIR      32  29  88 CALM      29.94S
VIROQUA        FAIR      46  28  48 SW3       29.93F
WIS DELLS      FAIR      39  31  73 S6        29.94F WCI  35
$$

...ELSEWHERE IN WISCONSIN...


CITY           SKY/WX    TMP DP  RH WIND       PRES   REMARKS
MILWAUKEE      FAIR      38  28  67 CALM      29.96F
MADISON        FAIR      40  31  70 S6        29.95F
GREEN BAY      FAIR      36  31  82 S5        29.93F WCI  32
EAU CLAIRE     NOT AVBL
BLACK RVR FLS  FAIR      26  26 100 CALM      29.93F
MEDFORD        FAIR      32  28  86 S5        29.90F WCI  27
WAUSAU         FAIR      33  27  78 CALM      29.90F
WIS RAPIDS     FAIR      31  27  85 CALM      29.93F
MARSHFIELD     FAIR      39  28  64 SW5       29.91F
RICE LAKE      FAIR      33  31  92 CALM      29.92F
$$

...NORTHEAST IOWA...


CITY           SKY/WX    TMP DP  RH WIND       PRES   REMARKS
WATERLOO       FAIR      36  32  85 CALM      29.94F
DUBUQUE        FAIR      40  32  73 S7        29.94F
DECORAH        MOCLDY    41  30  65 CALM      29.93F
MASON CITY     CLOUDY    38  35  89 CALM      29.94F
CHARLES CITY   FAIR      41  36  81 CALM      29.94F
OELWEIN        FAIR      39  36  87 E6        29.94F WCI  35
$$

...ELSEWHERE IN IOWA...


CITY           SKY/WX    TMP DP  RH WIND       PRES   REMARKS
DES MOINES     CLOUDY    47  31  53 CALM      29.96F
IOWA CITY      FAIR      39  31  72 CALM      29.95F
FORT DODGE     CLOUDY    39  34  82 CALM      29.95F
MARSHALLTOWN   CLOUDY    39  32  76 NW3       29.94F
CEDAR RAPIDS   FAIR      42  29  59 N6        29.93F
$$

...NORTHERN ILLINOIS...


CITY           SKY/WX    TMP DP  RH WIND       PRES   REMARKS
CHICAGO-OHARE  FAIR      37  29  72 W3        29.96F
CHICAGO-MIDWAY FAIR      40  31  70 N3        29.96F
MOLINE         FAIR      37  31  78 E5        29.96F WCI  33
ROCKFORD       FAIR      36  28  73 CALM      29.99F
PEORIA         FAIR      41  31  67 E5        29.97S
$$

NOTE: "FAIR" INDICATES FEW OR NO CLOUDS BELOW 12,000 FEET WITH NO
SIGNIFICANT WEATHER AND/OR OBSTRUCTIONS TO VISIBILITY. WIND
SPEEDS ARE IN MILES-PER-HOUR.




USA.gov is the U.S. government's official web portal to all federal, state and local government web resources and services.